Regional Weather Roundup
Issued by NWS

Home | Current Version | Previous Version | Text Only | Print | Product List | Glossary Off
Versions: 1 2 3 4 5 6 7 8 9 10 11 12 13 14 15 16 17 18 19 20 21 22 23 24 25 26 27 28 29 30 31 32 33 34 35 36 37 38 39 40 41 42 43 44 45 46 47 48 49 50

000
ASUS45 KCYS 211510
RWRWY

WYOMING REGIONAL WEATHER ROUNDUP
NATIONAL WEATHER SERVICE CHEYENNE WY
900 AM MDT THU AUG 21 2014

NOTE:  "FAIR" INDICATES FEW OR NO CLOUDS BELOW 12,000 FEET
WITH NO SIGNIFICANT WEATHER AND/OR OBSTRUCTIONS TO VISIBILITY.

WYZ001-211600-
YELLOWSTONE NATIONAL PARK

CITY           SKY/WX    TMP DP  RH WIND       PRES   REMARKS
LK YELLOWSTONE   N/A     46  45  96 CALM      30.22S
W YELLOWSTONE  NOT AVBL

$$
WYZ002>013-054>058-071-098>099-211600-
NORTHERN WYOMING

CITY           SKY/WX    TMP DP  RH WIND       PRES   REMARKS
JACKSON        CLOUDY    50  50 100 SW9       30.16S FOG
CODY           CLOUDY    57  50  77 N12       30.08S
GREYBULL       PTSUNNY   64  53  67 E3        30.01S
WORLAND        PTSUNNY   65  49  56 CALM      30.03S
SHERIDAN       MOSUNNY   65  51  60 NW7       30.04R
BUFFALO        CLOUDY    62  49  62 N12       30.07R
GILLETTE       PTSUNNY   64  53  67 N6        30.03S
HULETT         PTSUNNY   64  54  68 MISG      30.03
NEWCASTLE      FAIR      70  54  56 SE7       30.01

$$
WYZ014>020-022>026-101>103-211600-
CENTRAL WYOMING

CITY           SKY/WX    TMP DP  RH WIND       PRES   REMARKS
BIG PINEY      PTSUNNY   50  47  89 S5        30.21S
PINEDALE       DRIZZLE   50  46  87 SE8       30.21F
DUBOIS         CLOUDY    52  41  66 NW12      30.15F
LANDER         PTSUNNY   63  51  65 SE3       30.07S
RIVERTON       CLOUDY    62  45  53 S8        30.09R
CASPER         MOSUNNY   66  44  45 SW17G23   30.07S
DOUGLAS        SUNNY     69  45  41 NW6       30.07S

$$
WYZ021-027>030-104>119-211600-
SOUTHERN WYOMING

CITY           SKY/WX    TMP DP  RH WIND       PRES   REMARKS
EVANSTON       CLOUDY    53  49  86 S9        30.21S
KEMMERER       PTSUNNY   54  46  76 CALM      30.22S
FORT BRIDGER   PTSUNNY   56  49  79 W3        30.24S
ROCK SPRINGS   MOSUNNY   55  46  71 SE5       30.21R
DIXON          FAIR      58  49  74 CALM      30.24S
RAWLINS        SUNNY     59  46  62 W8        30.21S
SARATOGA       FAIR      55  50  82 MISG      30.24R
LARAMIE        MOSUNNY   60  44  55 SW12      30.22S
CHEYENNE       SUNNY     69  45  41 W14G20    30.14R
TORRINGTON     MOSUNNY   73  50  44 W12       30.01S
PINE BLUFFS    FAIR      70  45  40 NW18      30.08S

$$


USA.gov is the U.S. government's official web portal to all federal, state and local government web resources and services.